Miscellaneous Local Product
Issued by NWS Hastings, NE

Home | Current Version | Previous Version | Graphics & Text | Print | Product List | Glossary On
Versions: 1 2 3 4 5 6 7 8 9 10 11 12 13 14 15 16 17 18 19 20 21 22 23 24 25 26 27 28 29 30 31 32 33 34 35 36 37 38 39 40 41 42 43 44 45 46 47 48 49 50
560
AXUS43 KGID 040302
MISGRI

GID CWA HOURLY WEATHER ROUNDUP
NATIONAL WEATHER SERVICE HASTINGS NE
900 PM CST SAT DEC 03 2016

NOTE: "FAIR" INDICATES FEW OR NO CLOUDS BELOW 12,000 FEET WITH NO
SIGNIFICANT WEATHER AND/OR OBSTRUCTIONS TO VISIBILITY.

...SOUTH CENTRAL NEBRASKA...

CITY           SKY/WX    TMP DP  RH WIND       PRES   REMARKS
GRAND ISLAND   CLOUDY    32  32 100 S9        30.05F FOG     WCI  24
HASTINGS       CLOUDY    32  32 100 S6        30.06F FOG     WCI  26
KEARNEY        CLOUDY    32  28  86 SW8       30.04S WCI  25
ORD            CLOUDY    33  29  85 S9        30.02S WCI  25
YORK           CLOUDY    32  32 100 CALM      30.07S
AURORA         CLOUDY    32  32 100 S5        30.05F WCI  27
LEXINGTON      CLOUDY    32  31  95 S6        30.02S WCI  27
HOLDREGE       CLOUDY    32  31  96 S7        30.03S WCI  26
HEBRON         LGT SNOW  32  32 100 CALM      30.07F

...NEBRASKA PANHANDLE...

CITY           SKY/WX    TMP DP  RH WIND       PRES   REMARKS
CHADRON        PTCLDY    28  15  58 SW13      29.97S WCI  17
ALLIANCE       CLOUDY    29  17  61 W9        29.97R WCI  20
SCOTTSBLUFF    CLEAR     30  14  51 NW8       30.00S WCI  22
SIDNEY         CLOUDY    27  14  58 NW14      30.00F WCI  16

...WESTERN AND NORTH CENTRAL NEBRASKA...

CITY           SKY/WX    TMP DP  RH WIND       PRES   REMARKS
VALENTINE      PTCLDY    26  19  74 SW8       29.94S WCI  18
AINSWORTH      PTCLDY    28  18  65 W9        29.95S WCI  20
ONEILL         MOCLDY    33  32  95 S13       29.98F WCI  24
BROKEN BOW     CLOUDY    34  31  88 S13       30.00R WCI  25
IMPERIAL       CLEAR     30  16  56 NW7       30.01R WCI  23
NORTH PLATTE   PTCLDY    33  29  85 S5        30.00R WCI  29
MCCOOK         CLOUDY    35  32  88 SW7       30.02S WCI  29

...EASTERN NEBRASKA...

CITY           SKY/WX    TMP DP  RH WIND       PRES   REMARKS
NORFOLK        CLOUDY    32  30  92 S13       30.04F WCI  22
SO SIOUX CITY  CLOUDY    35  33  92 S10       30.09F WCI  27
TEKAMAH        LGT SNOW  32  32 100 CALM      30.10F VSB 1
COLUMBUS       CLOUDY    34  30  86 SE7       30.07F WCI  28
ALBION         CLOUDY    32  32  99 S9        30.04F FOG     WCI  24
OMAHA EPPLEY   LGT SNOW  33  29  85 SE5       30.10F FOG     WCI  29
MILLARD        LGT SNOW  33  32  95 CALM      30.09F
LINCOLN        LGT SNOW  33  32  96 CALM      30.09F FOG
NEBRASKA CITY  LGT RAIN  35  35 100 SE5       30.08F WCI  31
BEATRICE       LGT RAIN  34  34  98 S5        30.06F WCI  30
FALLS CITY     LGT RAIN  38  36  92 SE6       30.09F WCI  33

...NORTHERN KANSAS...

CITY           SKY/WX    TMP DP  RH WIND       PRES   REMARKS
GOODLAND       CLOUDY    31  29  92 S8        30.00R WCI  23
HILL CITY      CLOUDY    33  32  96 CALM      30.05F FOG
NORTON         CLOUDY    34  30  86 S5        30.03S FOG     WCI  30
PHILLIPSBURG   CLOUDY    32  32 100 CALM      30.07F FOG
SMITH CENTER   CLOUDY    30  30 100 CALM      30.08R FOG
BELOIT         CLOUDY    32  32 100 CALM      30.07F
HAYS           LGT RAIN  33  32  96 CALM      30.06F FOG
RUSSELL        RAIN      33  33 100 NW5       30.05F FOG     WCI  29
CONCORDIA      LGT RAIN  37  37 100 S8        30.07S FOG     WCI  31
SALINA         LGT RAIN  40  39  97 SE5       30.09S FOG
TOPEKA         LGT RAIN  42  37  82 NW6       30.11F



USA.gov is the U.S. government's official web portal to all federal, state and local government web resources and services.